Baseball 板


LINE

2015年韓國職棒例行賽 KT巫師 VS 樂天巨人 韓國14:00 台灣時間13:00開打 金相賢(5) 李大炯(1) 金士淵(7)Jim Adduci(1) 金旼河(7) 孫兒葉(3) / \ / \ / \ 朴基赫(8) 朴慶洙(3) / \ 文奎現(9)鄭勳 (5) / \ / \ / Andy Marte(4)Andy Sisco趙重槿(2) 黃載均(2)宋勝準吳承澤(8) \ / \ / \ / DH:張盛好(6) \◆/ 崔俊蓆(4) 龍德韓(9) 姜珉鎬(6) 直播頻道1:NAVER SPORT:http://ppt.cc/8eml 點中間畫面 他會你下載一個觀看直播的程式 安裝完就可以看了 畫質還不錯 直播頻道2:DAUM:http://ppt.cc/MXPd 同上面 一樣要下載一個觀看的程式 檔案都不大 希克今日成績:3/28 IP:4.0 96球 H:5 HR:2 BB:3 K:5 失分:5 自責:5 ERA:11.25 --



※ 發信站: 批踢踢實業坊(ptt.cc), 來自: 59.127.60.131
※ 文章網址: https://webptt.com/m.aspx?n=bbs/Baseball/M.1427604860.A.712.html
1F:推 h034826567: 今天好熱鬧 03/29 12:56
2F:推 Sheng98: 中午日職 x 2 + 韓職 x 1, 晚點在吳鳳接鬼看中職 x 2 03/29 12:57
3F:→ Sheng98: 再 03/29 12:57
4F:推 nanako81240: 還好 記得之前有一次 中職+凌晨MLB+早上NBA 03/29 13:01
5F:→ nanako81240: 好像是王建民還是誰的時候..好幾年前 03/29 13:02
6F:→ nanako81240: 總之就都有台灣人出賽 都不能睡 03/29 13:02
7F:→ nanako81240: NBA沒台灣人 只是好像是很好看的賽事 03/29 13:03
8F:→ hbk20491: 這轉播好猛 球種都有 http://i.imgur.com/nP1S7ZP.jpg 03/29 13:04
9F:推 andy40074: 有一年是兩天姜建銘+郭泓志+王建民先發 都拿勝投 03/29 13:05
10F:→ Sheng98: 這是在玩實況野球嗎 XD 03/29 13:05
11F:→ gidapops: 看來韓國要多丟下墜變化球 好球帶太小 03/29 13:07
12F:→ hbk20491: 要開始投拉 03/29 13:07
13F:→ hbk20491: 樂天巨人1棒放洋砲 03/29 13:08
14F:→ hbk20491: 147km 03/29 13:09
15F:→ woulin: 飛很遠.. 03/29 13:09
16F:推 cychiang: 被扛了 03/29 13:10
17F:→ hbk20491: 被尻了 03/29 13:10
18F:推 book8685: https://www.youtube.com/watch?v=oypCuTZv-fY 水管 03/29 13:10
19F:推 suzhou: 今年好球帶已經多放寬上下一顆好球了.... 不要再lag了 03/29 13:10
20F:→ woulin: 希克白天都會投不好 03/29 13:11
21F:推 cadana: 是黃戴軍嗎 希克變好瘦 03/29 13:11
22F:→ hbk20491: 對黃載均有打亞運 差點上壘 03/29 13:12
23F:推 jenchieh5: 希克的守備真的是...Y 03/29 13:12
24F:推 mimiiy: 今天好忙啊XD 03/29 13:12
25F:→ woulin: 其實可以短打,投手前滾地球 希克都處理不好 03/29 13:12
26F:→ cadana: 我才覺得臉有點面熟 03/29 13:13
27F:→ fireguard119: 記得以前年代轉播的時候也有顯示投手的球種 03/29 13:13
28F:推 gidapops: 148完全沒被擠壓到 03/29 13:13
29F:→ hbk20491: eeeeeee 03/29 13:14
30F:推 burnnie8510: 這什麼守備... 03/29 13:14
31F:→ suzhou: 昨天另一個頻道轉播時 還有初速/末速/轉速/回轉方向 03/29 13:14
32F:推 encorej77107: 場地好爛....... 03/29 13:15
33F:→ woulin: 失誤...這球不難 03/29 13:15
34F:→ gidapops: 屋漏偏逢 03/29 13:15
35F:推 nanako81240: 這守備XDDDD 03/29 13:15
36F:推 mimiiy: 游擊E 03/29 13:15
37F:→ suzhou: 朴基赫 不意外 03/29 13:15
38F:→ nanako81240: 不蹲又不正面接球  活該 03/29 13:15
39F:→ suzhou: 游擊手是賣臉用的XDDD 03/29 13:15
40F:推 fireguard119: 韓職是不是每隊都有水管的專屬TV? 03/29 13:15
41F:→ hbk20491: 朴基赫樂天巨人轉來的 03/29 13:16
42F:推 burnnie8510: 希克變瘦變好帥 03/29 13:16
43F:推 encorej77107: 沒有記E............ 03/29 13:16
44F:推 jenchieh5: K 03/29 13:17
45F:→ encorej77107: 韓職的紀錄組也太歡樂了 03/29 13:17
46F:→ mimiiy: 靠自己比較穩…… 03/29 13:17
47F:推 book8685: 回樓主 只找到這個 03/29 13:17
48F:→ hbk20491: 輪到洋砲打 03/29 13:18
49F:推 samlee1008: 場邊記者 好正... 03/29 13:18
50F:→ woulin: 這麼簡單處理的球 竟然沒記E,難怪韓職投手防禦率這麼高 03/29 13:18
51F:推 cadana: kbo是歡樂打擊聯盟 03/29 13:19
52F:推 encorej77107: 好球帶有點扯 03/29 13:20
53F:→ encorej77107: 明明就好球都不撿 03/29 13:20
54F:→ suzhou: 轉播剛剛有解釋 那球有打到草皮邊緣影響滾動軌跡才記H 03/29 13:20
55F:推 gidapops: 旁邊吃飯的那個好像郝劭文 03/29 13:21
56F:→ hbk20491: k-zone好準 03/29 13:23
57F:→ hbk20491: 孫兒葉 e 03/29 13:23
58F:→ Xiong271: XDDDDDD 03/29 13:23
59F:推 burnnie8510: 各種有趣守備 03/29 13:23
60F:→ gidapops: 不是說台灣場地很差 結果差不多 03/29 13:23
61F:推 kevinjeng: 好歡樂的守備.... 03/29 13:23
62F:→ Xiong271: 是還在春訓嗎 03/29 13:23
63F:→ gidapops: 根本是新竹 03/29 13:24
64F:→ Lackland: 超鳥的系隊守備已經兩個了 呵呵 03/29 13:24
65F:→ jenchieh5: 歡樂... 03/29 13:24
66F:推 encorej77107: 鳥鳥的..... 03/29 13:24
67F:→ suzhou: 以目前五個開賽的場地來看 釜山這場地草皮的確很糟糕... 03/29 13:25
68F:→ hbk20491: 不過外野螢幕 超屌的 全彩 一堆數據 03/29 13:26
69F:→ fireguard119: 草皮好像之前的台南球場 03/29 13:27
70F:→ hbk20491: http://i.imgur.com/J402h1m.jpg 03/29 13:27
71F:→ suzhou: 直接丟到紅中... 宋勝準狀況完全還在春訓... 03/29 13:27
72F:→ minicat: 假球聯盟吧 唯一超越全世界的棒球和籃球 03/29 13:28
73F:→ suzhou: 還是光州那場地好太多了 03/29 13:28
74F:→ encorej77107: 這螢幕真的好屌.... 03/29 13:28
75F:推 chunyanlin: 是說KT沒帶應援團到客場嗎? 03/29 13:29
76F:→ gidapops: 好球帶真不大 03/29 13:29
77F:推 ppacers: KBO根本就烙賽聯盟 得分都用灌水的 03/29 13:29
78F:→ ppacers: 比CPBL還鳥的聯盟 超歡樂 03/29 13:29
79F:→ gidapops: 根本是郭銘仁的守備 03/29 13:29
80F:→ ppacers: 常常可以不用安打得5分 03/29 13:29
81F:推 burnnie8510: 真的是系隊守備 03/29 13:30
82F:→ jenchieh5: 好抖的守備 03/29 13:30
83F:→ ppacers: 韓X人一點也不意外 超愛亂搞 03/29 13:30
84F:→ encorej77107: 台灣不知哪時候才能跟進這種螢幕 03/29 13:30
85F:→ suzhou: 內野草皮真的有夠爛的 滾動軌跡其實不好抓 03/29 13:30
86F:→ ppacers: 什麼巫師隊 以為在打NBA嗎 我還溜馬隊勒 03/29 13:30
87F:推 freezee: 說好的樂天女神呢 03/29 13:31
88F:→ ppacers: 樂天女神被輪姦了 03/29 13:32
89F:→ hbk20491: kia老虎目前球場的螢幕更屌 去年完工的 03/29 13:32
90F:→ hbk20491: http://i.imgur.com/PwP861W.jpg 03/29 13:32
91F:→ suzhou: 龍德韓的打擊跟郭一峰有得拼.... 03/29 13:32
92F:→ hbk20491: 這螢幕價格不知道有沒有破億 03/29 13:32
93F:→ minicat: 這也是球隊數短期增加太快的通病 水準參差不齊 03/29 13:33
94F:→ ppacers: 不過他們會行銷 球隊多對戰組合多的確有利觀看人數 03/29 13:33
95F:→ ppacers: 至於水準從去年就很差了 03/29 13:34
96F:→ suzhou: 其實今天主審很明顯就是左右外側不撿 低角不撿 只撿高角 03/29 13:35
97F:→ hbk20491: 148 03/29 13:35
98F:→ hbk20491: 沒撿 k-zone蠻準的 03/29 13:36
99F:推 kevinjeng: 這好球帶有沒有a4啊0.....0 03/29 13:36
100F:→ suzhou: 其實競技水平還是比中職高 中職多數洋將到那用球數都暴增 03/29 13:36
101F:→ kevinjeng: 希克快瘋了.... 03/29 13:37
102F:推 mimiiy: 好球帶有點窄 03/29 13:37
103F:→ hbk20491: 纏鬥9球bb 03/29 13:37
104F:→ suzhou: 在中職有外角海可以玩 在韓職就真的要有一定控球才能生存 03/29 13:37
105F:→ suzhou: 像是吳昇桓可以很穩定都壓在兩側低角還能取得好球數 03/29 13:38
106F:推 encorej77107: 韓職這算異常好球帶.... 03/29 13:38
107F:→ jenchieh5: 這球乾脆 03/29 13:39
108F:→ encorej77107: 中職這種好球帶 全壘打也會滿天飛... 03/29 13:39
109F:推 burnnie8510: kkk 03/29 13:39
110F:→ suzhou: 其實希克現在搭配的捕手算是很會配球的 他可以多試些內角 03/29 13:39
111F:推 freezee: 這好球帶超窄 03/29 13:40
112F:→ suzhou: 希克的身高丟一些內角高球去壓迫打者是會有效果的 03/29 13:40
113F:→ minicat: 打者打擊水準夠強阿 雖然和主審也有關 03/29 13:41
114F:推 burnnie8510: 韓國是打擊聯盟,好奇問一下日本呢 03/29 13:42
115F:推 losewind: 好球帶這麼窄 所以才會有那麼多全壘打嗎? 03/29 13:42
116F:推 mimiiy: k zone看不太懂…外角標過本壘板,內角標接球點? 03/29 13:42
117F:→ minicat: 中職近幾年 還是有進步的 再加油吧 03/29 13:42
118F:→ Lackland: 這種好球帶太誇張啦 03/29 13:43
119F:→ gidapops: 剛第二球在中職根本就100%好球 03/29 13:44
120F:推 davidrick: 樂天球衣不太好看... 03/29 13:44
121F:推 candy04242: 請問現在幾分了 03/29 13:44
122F:推 encorej77107: 中職剛開季那幾場外角海消失後 全壘打也是滿天飛 03/29 13:44
123F:推 burnnie8510: 2:1 03/29 13:45
124F:→ encorej77107: 如果套用韓職這種 一定更可觀 03/29 13:45
125F:→ suzhou: 不過宋勝準這局慢慢找回一點控球 低角的球路沒太多偏差 03/29 13:45
126F:→ suzhou: 如果宋勝準這樣控球的話 KT後面真的不好打了 03/29 13:46
127F:推 clement1031: 手機可以看naver嗎 03/29 13:46
128F:→ hbk20491: 點看看 03/29 13:46
129F:→ suzhou: 可以 03/29 13:46
130F:→ hbk20491: 推文有youtube連結 03/29 13:46
131F:→ suzhou: 手機我會建議用daum比較好用 03/29 13:46
132F:→ mimiiy: 手機看水管吧,推文有連結 03/29 13:46
133F:→ suzhou: daum只要安裝他的軟件 就可以五場隨意切換 也能換頻道 03/29 13:47
134F:推 devil0915: kzone就人工標的阿 03/29 13:48
135F:→ suzhou: 宋勝準今天的直球控球較差 且球速還沒出來 還可繼續觀察 03/29 13:49
136F:推 davidrick: 這草皮悲劇 03/29 13:49
137F:→ suzhou: Kzone哪來人工標的 = =" 那是一套系統 要架三台機器測 03/29 13:49
138F:→ suzhou: 依照轉播單位的不同 有些會有初速/末速/回轉圈數 03/29 13:50
139F:推 clement1031: 我手機好像無法看never哭哭 03/29 13:51
140F:推 s27c52: 可以用Naver阿! 03/29 13:51
141F:→ freezee: 我剛剛用手機可以看耶 03/29 13:51
142F:→ clement1031: 水管是可以看可是我是要看斗山的 03/29 13:51
143F:推 fireguard119: 請問Naver那個網路直播是永久的嗎?還是不定時開放 03/29 13:52
144F:→ suzhou: Naver的直播是每場去開他網頁就有連結 03/29 13:53
145F:推 clement1031: 樓上各位怎麼用手機看never的 03/29 13:53
146F:推 s27c52: 手機也可以看 我都用KBO的APP去點的 03/29 13:53
147F:→ suzhou: 手機一定要安裝naver的cast軟件喔~ 03/29 13:53
148F:→ s27c52: 可是為什麼今年Naver不能一次看4場阿(分割畫面) 03/29 13:54
149F:→ s27c52: 去年還可以一次看4場的 剛剛試著要點 就不行了 03/29 13:54
150F:→ suzhou: 黃載均打的真順手.... 03/29 13:54
151F:推 OLM: 投到紅中了 03/29 13:54
152F:推 Dawei1165: 手機不用吧 我沒裝也可以看啊 03/29 13:55
153F:→ suzhou: Naver可以多畫面 但今年開始限制海外不給多畫面使用 03/29 13:56
154F:推 s27c52: 我手機有裝Naver的cast軟件才能看! 03/29 13:56
155F:→ s27c52: 原來如此 海外表示難過Orz 水管沒了 連一次多畫面都不行 03/29 13:56
156F:→ hbk20491: 控球太扯了吧 一堆超高 03/29 13:57
157F:推 neosu: 變化球幾乎都控不進去 03/29 13:58
158F:推 OLM: 稀客本來控球就沒有非常好 03/29 13:58
159F:→ suzhou: 希克眼前的課題是要幫球隊多吃局數 不然土投沒幾個能用的 03/29 13:59
160F:→ gidapops: 這樣也壞球 03/29 14:00
161F:→ suzhou: 希克的球只要能丟在兩角 就算被打到也不一定好打 03/29 14:00
162F:→ suzhou: 暴投.... 03/29 14:01
163F:推 freezee: 看到樂天女神了!!! 03/29 14:01
164F:推 iamyamashi: 樂天女神是誰 03/29 14:02
165F:→ suzhou: 希克加油啊 後面牛棚這樣操 總仔的耐心有限的 03/29 14:02
166F:推 devil0915: 好球帶真他X的小 03/29 14:03
167F:→ hbk20491: 聽到 lamigo的歌曲 03/29 14:03
168F:推 encorej77107: 韓職會繼中洗掉嗎? 我犀表示歡迎 03/29 14:03
169F:推 freezee: http://i.imgur.com/FY7OKFE.jpg 03/29 14:05
170F:→ joyna4629: 兩好球了結果HBP...... 03/29 14:05
171F:推 suzhou: 丟人啦~~丟人啦!! 03/29 14:05
172F:→ suzhou: 控球真的快炸了 03/29 14:05
173F:推 jenchieh5: ............................. 03/29 14:05
174F:→ Dawei1165: 應該不是LM的歌曲 而是LM用樂天的吧-.- 03/29 14:06
175F:→ suzhou: 是LM向樂天『致敬』的XDD 03/29 14:06
176F:推 kevinjeng: 希克簽兩年約今年第二年 應該不會洗吧 03/29 14:06
177F:→ joyna4629: 炸了... 03/29 14:06
178F:→ hbk20491: 爆了 03/29 14:06
179F:→ jimmy8343: LM的歌耶 03/29 14:06
180F:推 Zuleta: LM不是去完韓國就帶回來了嗎 03/29 14:06
181F:→ kevinjeng: 不過很明顯投到要發瘋了...... 03/29 14:06
182F:推 mimiiy: 不知道希克想不想回來了 03/29 14:06
183F:→ jenchieh5: 隔壁克拉帝都拿勝投了 03/29 14:06
184F:→ suzhou: 繼續炸兩分 03/29 14:06
185F:推 encorej77107: 我覺得能在韓職生存的去日本也會沒問題...... 03/29 14:07
186F:→ Zuleta: 好辛苦 03/29 14:07
187F:推 freezee: 爆了 03/29 14:07
188F:→ hbk20491: 克拉帝去韓職投會這樣嗎 03/29 14:07
189F:→ suzhou: 繼續這樣場場炸的話 一個多月就準備被洗掉了 03/29 14:07
190F:→ encorej77107: 克拉地控球也沒有很精準阿 03/29 14:07
191F:→ mimiiy: 隔壁克拉帝都翹腳啃瓜子了 03/29 14:07
192F:→ hbk20491: Rick VandenHurk 去日本投得怎樣?? 03/29 14:08
193F:→ jimmy8343: 韓職投手能生存的都不錯啊 03/29 14:08
194F:→ william7713: 邊邊角角不太撿 03/29 14:08
195F:推 Lackland: 希克:克拉帝這種好球帶我投不下去 03/29 14:09
196F:→ suzhou: 如果希克有安迪的控球的話 應該會殺翻天 03/29 14:09
197F:推 chemikelvin: 我犀準備迎回我希 03/29 14:10
198F:推 kevinjeng: 直球投中間還壓得了 邊邊角角投死自己 03/29 14:10
199F:→ suzhou: KT曹總似乎臉色不太好.... 03/29 14:10
200F:→ Zuleta: Rick VandenHurk還沒先發過 03/29 14:10
201F:→ joyna4629: K掉 03/29 14:10
202F:→ Zuleta: 前年SK的勝投王Seddon去巨人第一場15K 結果整季普通也沒了 03/29 14:10
203F:推 herolgg: 直球跟在台灣差不多呀!!只是這好球帶好高阿 03/29 14:11
204F:→ tony123839: 爛好球帶 呵 03/29 14:11
205F:推 jenchieh5: 希克好悶 03/29 14:11
206F:→ kevinjeng: 希克還是投得很累== 03/29 14:11
207F:→ Zuleta: 看他在中職KKK 這場投的有夠辛苦 03/29 14:12
208F:→ Lackland: 邊角角沒半顆撿 只好全拼速球往中間對決 03/29 14:12
209F:→ tony123839: 希克去日本說不定還比較好一點 03/29 14:12
210F:→ suzhou: 不過希克今天控球真的不好 一些球都跟捕手位置有落差 03/29 14:12
211F:→ joyna4629: 好球帶是有點小 但感覺希克今天狀況也沒很好 03/29 14:12
212F:推 freezee: 希克多投幾場再看看吧 03/29 14:12
213F:→ herolgg: 這好球帶就林A4向上移動兩球的好球帶 03/29 14:12
214F:推 fireguard119: 韓職啦啦隊的表演站台是不是都沒有安全防護啊? 03/29 14:13
215F:→ jenchieh5: 希克在台灣就直球塞進去就好 顯然韓職不可能這樣過關 03/29 14:13
216F:→ fireguard119: 感覺很沒有安全感 03/29 14:13
217F:→ suzhou: 希克今天兩好球之後的引誘球普遍沒效果 除了內角高速球 03/29 14:14
218F:→ suzhou: 大部分的引誘球幾乎打者都很少被騙到 03/29 14:14
219F:推 suzhou: 哈哈哈 剛剛SBS主播在講今天好球帶 "很固定"偏高 03/29 14:17
220F:→ suzhou: 低角度偏外半顆會撿 但低角度偏內則主審不愛 高角則都愛 03/29 14:19
221F:推 Hans2013: 喜歡換場影片~ 03/29 14:20
222F:推 freezee: http://youtu.be/4XeGrLboQ3w 03/29 14:21
223F:→ freezee: 再來推薦樂天女神一下 03/29 14:21
224F:推 kevinjeng: 塞正中直球對方就打不好 前幾局偏要邊角就投垮自己了 03/29 14:22
225F:推 Zuleta: 被尻到XDDDDDDDDDD 超遠 03/29 14:23
226F:→ joyna4629: 被炸裂惹 03/29 14:23
227F:推 jenchieh5: 好可怕的砲瓦... 03/29 14:24
228F:→ suzhou: 被5A洋打扛出去 03/29 14:24
229F:→ suzhou: 控球大暴走了 03/29 14:25
230F:→ jenchieh5: 韓職控球的容錯率好低 03/29 14:26
231F:→ hbk20491: 連4顆4壞 03/29 14:26
232F:推 Zuleta: 他直球對KBO好像沒什麼用 03/29 14:26
233F:推 theropod: 好球帶比較小 03/29 14:26
234F:→ Zuleta: 好明顯的四壞 03/29 14:26
235F:推 suzhou: 希克的車票已經可以開出半張了XDD 03/29 14:27
236F:→ jenchieh5: 中職四隊GM可以打電話了... 03/29 14:27
237F:→ Zuleta: SB 03/29 14:27
238F:→ suzhou: 兄弟快去接洽希克吧 03/29 14:27
239F:推 kenro: 姿勢都亂掉了 韓職水準比中職高很多 投得很吃力 03/29 14:27
240F:→ jenchieh5: 我看希克每球幾乎都120%... 03/29 14:27
241F:推 sh235612: 兄弟有希克的話應該會很殺 03/29 14:27
242F:→ suzhou: 連跑者都欺負他了.... 03/29 14:28
243F:推 encorej77107: 趕快回我犀 然後亞職再殺KBO球隊 03/29 14:28
244F:→ theropod: 好球帶不一樣的也可以比較?? 03/29 14:28
245F:→ Zuleta: 釣到了 03/29 14:28
246F:→ joyna4629: K了 03/29 14:28
247F:→ Zuleta: 剛那洋砲扛的超遠 03/29 14:29
248F:推 chemikelvin: 4IP 5K 三振能力還是有 03/29 14:29
249F:→ suzhou: 樂天的洋打在大聯盟根本就是守備組的 到亞洲卻殺翻天 03/29 14:30
250F:推 homerun100: 韓職有youtub看真好 03/29 14:31
251F:→ suzhou: 希克快百球只消化四局 這會讓牛棚累死... 03/29 14:31
252F:推 theropod: 如果把好球帶放到跟中職一樣大,希克用球數也可能下降阿 03/29 14:31
253F:→ suzhou: KT目前兩個洋投都好悲劇 感覺隊史第一勝要等很久 03/29 14:33
254F:推 Zuleta: 三星Navarro也是阿ww大聯盟成績水槍 結果變30轟二壘砲 03/29 14:34
255F:推 jenchieh5: 他現在就是在韓職了 講中職的東西沒什麼意義... 03/29 14:34
256F:推 kenro: 不會 希克在中職投差不多紅中照樣爽爽吃打者 03/29 14:34
257F:→ suzhou: 摩根昨天打的根本鬼神 不過他的重點是看格鬥技XDD 03/29 14:35
258F:推 theropod: 沒意義~那幹嘛扯中職??? XDD 03/29 14:35
259F:→ Zuleta: 中二Morgan其實還能打啦ww就是中二ww 03/29 14:35
260F:→ suzhou: 希克下班了 牛棚要開始血汗了.... 03/29 14:35
261F:→ hbk20491: 換了喔== 03/29 14:36
262F:→ Zuleta: 換了 不到五局 03/29 14:36
263F:推 KK22440000: 一般韓職對洋投的耐心有多久啊? 03/29 14:36
264F:→ suzhou: KT菜鳥牛棚表示:錢難賺 03/29 14:36
265F:→ hbk20491: Morgan 熱身賽是不是沒上場 官網的熱身成績他沒資料 03/29 14:37
266F:→ suzhou: 如果場場爆的話 最多兩個月 03/29 14:37
267F:→ hbk20491: kt是新球隊 耐心應該會比其他久一點 03/29 14:37
268F:推 encorej77107: 配合季中選秀+希克XDDDDDDDDD 03/29 14:37
269F:→ suzhou: Morgan春訓一開始練習態度不好 被丟去二軍練 03/29 14:37
270F:→ suzhou: Morgan:林杯隨便亂練也能屌打韓國人 03/29 14:38
271F:推 suzhou: 現在上來接替的這個中繼控球還不錯耶 都有壓在邊角還滿準 03/29 14:40
※ 編輯: hbk20491 (59.127.60.131), 03/29/2015 14:44:58
272F:推 s27c52: 有人在看SK跟三星這場嗎?XD 剛剛有傻眼跑壘XDDD 03/29 14:49
273F:→ hbk20491: 幾局的搞笑跑累壘? 03/29 14:53
274F:推 s27c52: 5下的 一出局滿壘 崔炯宇打一顆很像全壘打的飛球 03/29 14:55
275F:→ s27c52: 然後被接殺(連轉播單位都跟錯外野手)然後一壘跑者衝過頭 03/29 14:55
276F:→ s27c52: 壘包上面亂成一團XD 03/29 14:55
277F:→ hbk20491: 等找影片 03/29 14:56
278F:→ hbk20491: http://ppt.cc/uE4n 這個= 轉播也被騙 03/29 15:00
279F:推 ofpurity: 有水管誰跟你還要下載阿zzz 03/29 15:01
280F:推 fireguard119: 就完全沒在看前面的狀況啊,搞笑哦 03/29 15:03
281F:推 suzhou: 接替希克丟的土投中繼反而控球都滿準的 希克控球要加油 03/29 15:06
282F:推 s27c52: 陳甲龍剛剛代打安打 真可怕 都幾歲了... 03/29 15:07
283F:→ s27c52: 問題應該是出在一壘跑者朴錫珉吧? 03/29 15:07
284F:推 suzhou: 陳甲龍現在是整個聯盟最老的了 03/29 15:08
285F:→ suzhou: 柳仲逸對自家那幾隻年輕捕手的配球一直不怎麼信任 03/29 15:09
286F:推 s27c52: 昨天李知榮表現不錯呀 有安打有打點有阻殺的 03/29 15:09
287F:→ suzhou: 不然其實三星養出來的幾個捕手其實並不差 到別隊都是寶 03/29 15:10
288F:→ suzhou: 張盛好又受傷了 他真的這幾年超級玻璃 03/29 15:11
289F:推 s27c52: 今天先發的捕手跟中外野手叫什麼名字啊? 03/29 15:11
290F:→ suzhou: KT打線已經沒什麼深度了 張盛好又受傷 KT會更慘 03/29 15:12
291F:推 clement1031: 斗山隊長兩分砲!! 03/29 15:17







like.gif 您可能會有興趣的文章
icon.png[問題/行為] 貓晚上進房間會不會有憋尿問題
icon.pngRe: [閒聊] 選了錯誤的女孩成為魔法少女 XDDDDDDDDDD
icon.png[正妹] 瑞典 一張
icon.png[心得] EMS高領長版毛衣.墨小樓MC1002
icon.png[分享] 丹龍隔熱紙GE55+33+22
icon.png[問題] 清洗洗衣機
icon.png[尋物] 窗台下的空間
icon.png[閒聊] 双極の女神1 木魔爵
icon.png[售車] 新竹 1997 march 1297cc 白色 四門
icon.png[討論] 能從照片感受到攝影者心情嗎
icon.png[狂賀] 賀賀賀賀 賀!島村卯月!總選舉NO.1
icon.png[難過] 羨慕白皮膚的女生
icon.png閱讀文章
icon.png[黑特]
icon.png[問題] SBK S1安裝於安全帽位置
icon.png[分享] 舊woo100絕版開箱!!
icon.pngRe: [無言] 關於小包衛生紙
icon.png[開箱] E5-2683V3 RX480Strix 快睿C1 簡單測試
icon.png[心得] 蒼の海賊龍 地獄 執行者16PT
icon.png[售車] 1999年Virage iO 1.8EXi
icon.png[心得] 挑戰33 LV10 獅子座pt solo
icon.png[閒聊] 手把手教你不被桶之新手主購教學
icon.png[分享] Civic Type R 量產版官方照無預警流出
icon.png[售車] Golf 4 2.0 銀色 自排
icon.png[出售] Graco提籃汽座(有底座)2000元誠可議
icon.png[問題] 請問補牙材質掉了還能再補嗎?(台中半年內
icon.png[問題] 44th 單曲 生寫竟然都給重複的啊啊!
icon.png[心得] 華南紅卡/icash 核卡
icon.png[問題] 拔牙矯正這樣正常嗎
icon.png[贈送] 老莫高業 初業 102年版
icon.png[情報] 三大行動支付 本季掀戰火
icon.png[寶寶] 博客來Amos水蠟筆5/1特價五折
icon.pngRe: [心得] 新鮮人一些面試分享
icon.png[心得] 蒼の海賊龍 地獄 麒麟25PT
icon.pngRe: [閒聊] (君の名は。雷慎入) 君名二創漫畫翻譯
icon.pngRe: [閒聊] OGN中場影片:失蹤人口局 (英文字幕)
icon.png[問題] 台灣大哥大4G訊號差
icon.png[出售] [全國]全新千尋侘草LED燈, 水草

請輸入看板名稱,例如:WOW站內搜尋

TOP